Wind_Speed
16 16 16 14 15 15 16 12 12 11 8 7 9 9 9 8 7 6 12 18 15 18 13 8 9 5 3 4 9 9 8 3 1 1 3 4 5 4 6 6 6 6 5 4 5 6 6 9 10
19 19 18 16 16 17 19 14 15 12 10 11 12 12 12 11 12 11 12 12 14 16 15 11 10 8 4 3 5 8 7 5 4 3 2 2 2 2 2 2 2 4 4 4 3 4 5 7 9
24 25 22 20 19 19 22 18 17 17 15 15 15 16 15 15 14 14 11 11 12 15 16 13 11 11 10 9 10 9 10 10 9 7 5 4 3 3 3 3 1 2 3 4 3 2 3 5 7
19 20 23 25 27 24 23 19 18 19 19 19 18 20 19 18 17 17 17 16 15 15 18 19 17 15 14 14 15 15 14 14 13 11 10 9 7 6 7 6 7 4 4 5 5 3 3 4 5
16 17 19 22 22 23 23 22 19 20 20 22 21 20 22 23 21 21 21 20 21 20 19 20 20 21 19 17 18 18 17 17 16 15 15 14 12 11 9 9 10 8 6 7 6 5 4 4 5
17 17 18 19 19 19 19 18 18 18 19 21 21 21 22 23 23 24 23 22 22 22 23 23 22 23 24 23 21 22 22 21 21 20 19 19 17 15 12 12 12 12 9 8 8 7 7 4 5
16 17 19 20 19 21 18 18 18 18 19 18 19 22 22 22 23 24 24 24 24 24 24 26 26 26 26 27 27 25 25 26 25 24 24 22 21 19 16 14 15 14 12 10 10 8 9 8 7
17 17 18 18 18 19 19 20 19 19 18 20 21 22 24 23 24 25 27 27 28 29 28 29 28 28 28 27 28 29 28 28 30 28 27 25 24 23 21 16 16 18 17 14 12 10 10 9 8
19 19 19 18 18 17 18 20 21 21 22 22 23 24 23 25 26 27 27 29 29 30 31 31 32 32 33 33 31 31 32 32 31 32 33 31 29 28 26 21 18 21 22 19 15 13 12 11 10
20 21 21 18 20 20 21 22 23 24 25 26 27 27 27 28 30 32 32 34 34 35 36 35 35 34 34 35 34 34 34 33 34 35 35 36 35 33 31 26 23 23 25 24 18 16 15 14 12
21 21 18 17 18 19 20 22 23 25 27 31 29 28 28 29 30 32 35 36 37 38 39 40 40 38 36 36 35 35 35 34 34 36 36 36 36 36 35 32 28 26 27 28 22 20 18 16 15
22 19 18 17 18 19 21 22 24 26 29 25 26 25 25 25 26 28 29 31 33 35 36 37 39 41 43 41 38 35 36 36 37 37 37 37 38 37 36 34 31 29 28 30 27 23 21 20 18
22 21 21 20 19 17 19 21 21 22 22 21 22 23 23 22 24 24 25 28 30 32 34 36 37 37 40 41 41 42 39 40 40 39 39 38 38 38 38 35 33 30 29 32 31 26 24 23 22
23 24 24 23 20 18 19 21 21 21 20 21 21 21 23 24 25 26 27 29 29 31 32 33 34 35 38 41 42 43 45 43 43 43 41 40 39 39 40 38 36 32 29 29 33 29 26 25 25
26 26 27 26 23 22 21 22 21 20 20 19 20 21 23 24 25 25 26 27 30 31 32 33 34 34 36 40 41 44 43 46 47 45 44 41 40 39 41 39 37 35 31 26 31 31 28 27 27
27 27 28 29 26 25 24 24 24 23 21 20 21 22 22 23 23 24 25 26 28 30 32 33 34 33 35 39 42 40 42 43 46 48 47 45 42 41 42 41 40 40 36 31 30 31 30 30 28
28 29 29 32 30 29 28 26 28 26 23 22 25 22 22 23 24 24 25 25 27 29 32 33 34 36 36 34 36 37 37 38 43 45 49 49 47 44 45 42 42 46 41 35 33 31 32 33 31
29 30 32 33 35 32 31 29 31 29 26 26 25 23 24 24 25 24 25 25 27 28 30 30 31 33 34 32 30 30 33 34 38 43 46 48 48 49 44 46 47 37 44 38 36 34 33 34 33
27 29 32 35 36 36 35 33 32 33 30 28 24 24 27 27 26 25 25 26 27 28 29 28 28 29 29 28 28 29 28 30 34 37 41 44 48 51 50 49 50 45 42 41 41 40 36 36 36
28 30 32 35 38 38 37 36 35 35 33 30 25 27 29 29 28 26 27 27 28 29 28 28 28 28 29 28 29 30 28 28 32 34 38 40 42 46 48 48 50 48 36 46 44 44 42 40 40
28 29 31 34 37 37 38 37 36 35 35 31 28 28 29 29 29 28 28 28 28 28 29 29 27 25 26 27 28 28 27 28 29 32 34 37 39 42 43 45 47 50 54 44 45 41 40 45 45
30 32 33 36 38 37 40 38 36 33 37 35 31 29 28 29 30 29 29 29 30 28 28 29 28 26 23 23 24 28 28 28 30 30 32 34 37 40 41 43 45 47 50 53 54 52 51 49 41
33 34 35 37 39 41 39 40 37 32 36 35 33 31 30 29 30 31 31 31 30 29 28 28 29 28 27 25 24 24 26 30 32 32 33 35 34 37 38 41 43 45 48 50 50 51 53 55 46
38 38 40 41 42 45 41 40 42 37 33 37 35 33 31 31 31 33 32 32 30 30 29 28 27 28 28 28 30 30 31 33 36 35 37 37 36 35 37 37 38 41 42 45 48 49 51 53 50
40 41 42 42 41 42 46 41 40 39 30 34 37 34 32 32 33 34 34 34 32 30 30 31 31 30 30 30 31 31 32 34 33 36 38 39 41 43 40 39 38 38 39 39 41 46 49 48 48
45 42 43 44 34 29 45 48 42 40 33 31 35 36 34 34 35 36 35 35 34 32 32 34 35 35 35 35 35 35 34 34 35 36 40 42 42 43 45 45 45 43 41 40 40 40 43 48 45
41 46 39 45 45 50 50 51 51 44 38 35 33 34 36 36 37 38 38 38 37 35 34 37 39 40 41 42 39 40 39 37 37 37 38 37 40 44 44 43 43 45 47 48 47 46 46 47 47
49 45 45 46 48 48 46 41 36 48 46 38 33 33 36 38 40 41 41 41 40 40 40 39 41 44 46 47 47 46 46 43 41 39 37 37 36 38 42 47 48 48 48 49 50 49 47 49 50
49 53 54 48 50 47 49 42 39 49 52 46 38 36 37 40 43 45 44 43 41 40 39 41 43 43 45 47 48 48 51 52 47 45 43 40 37 40 40 40 45 48 49 55 53 50 51 50 48
56 54 47 45 57 52 54 56 47 53 57 54 46 41 42 45 46 47 45 45 44 40 41 44 46 46 47 48 49 48 48 50 53 50 47 43 42 40 43 43 42 41 40 45 45 45 45 49 46
Wind_Direction
209 212 213 212 216 220 237 233 239 244 246 244 236 232 243 245 244 196 188 189 202 217 228 191 195 155 126 252 257 251 266 217 155 134 121 95 76 105 102 89 50 37 27 25 44 46 28 21 22
224 222 223 227 226 227 238 244 245 248 246 245 248 241 243 248 260 252 221 216 223 214 209 204 201 195 202 244 247 254 247 247 259 280 319 4 97 101 111 92 68 15 0 348 22 34 24 20 13
234 236 231 232 236 223 239 244 255 254 251 249 254 253 250 250 255 256 249 245 233 219 219 225 225 221 224 246 233 243 261 268 270 272 287 285 273 270 241 236 240 302 325 305 336 357 3 17 8
226 228 233 237 240 245 249 251 253 257 252 252 251 258 261 260 254 256 257 259 257 249 246 245 247 240 245 257 244 244 251 262 265 268 272 275 281 279 265 244 249 258 283 286 287 306 319 3 1
225 226 228 234 240 244 246 249 247 249 254 251 252 255 258 263 263 260 264 266 269 271 271 269 267 263 260 258 250 248 247 251 258 263 265 266 267 267 276 262 240 248 262 272 271 284 293 331 335
227 231 231 238 241 244 242 244 243 244 247 252 255 255 260 262 265 270 273 274 273 276 275 274 272 275 273 266 254 247 249 248 253 256 258 262 264 266 268 272 249 241 249 265 274 282 289 300 318
228 231 234 238 239 242 245 246 247 249 247 249 256 259 259 263 269 273 276 276 276 275 275 276 278 278 272 267 263 254 250 251 249 252 257 261 262 260 262 267 265 243 246 256 263 269 283 299 310
223 225 232 238 236 241 244 247 248 246 250 252 252 253 258 265 266 270 274 275 275 276 275 276 276 277 274 269 263 261 261 256 252 251 253 254 257 259 259 253 258 248 244 247 253 254 266 280 294
231 231 234 234 240 241 244 246 248 248 248 250 254 252 257 260 264 265 266 271 272 273 274 274 273 271 274 270 267 262 262 260 257 255 253 252 252 253 255 256 251 250 243 243 246 251 257 268 282
234 235 238 241 244 245 243 245 246 247 249 249 249 250 251 255 257 260 262 261 261 260 258 260 262 267 267 269 269 265 260 259 256 254 253 253 254 255 256 253 250 247 243 239 244 247 252 258 268
243 243 243 243 247 253 257 256 256 256 256 256 259 264 265 263 263 264 265 266 266 264 265 265 263 260 259 259 264 266 262 256 255 255 256 254 253 254 256 256 253 250 245 241 244 247 251 256 263
246 239 239 240 245 247 251 255 253 255 257 266 261 261 262 263 264 263 263 265 266 265 265 263 263 262 260 256 255 258 263 258 252 250 253 255 255 255 255 257 257 253 249 242 242 246 252 255 260
244 245 242 241 243 251 255 259 261 260 264 262 264 265 267 268 267 269 270 269 270 272 269 268 263 258 259 260 256 252 250 258 254 251 250 251 253 256 257 257 257 257 252 247 246 247 251 254 257
244 244 243 243 245 247 249 253 257 261 261 264 268 273 275 276 279 281 280 279 278 275 276 275 273 268 262 257 255 253 250 248 253 253 251 252 252 253 255 257 258 259 256 250 248 251 254 255 258
246 248 248 248 248 248 251 256 258 259 260 262 262 265 268 272 277 279 280 279 278 278 279 280 280 275 270 266 260 255 248 247 246 250 250 249 250 252 252 256 255 256 257 250 251 250 252 252 257
253 254 255 252 255 251 254 260 261 262 262 259 260 260 266 271 274 279 281 284 284 282 281 282 280 278 273 269 266 261 256 249 246 244 248 249 246 244 252 250 256 253 250 248 244 245 244 249 252
256 258 258 261 257 257 255 257 263 263 262 262 262 268 272 275 281 284 286 289 289 287 286 284 281 279 278 269 265 263 258 254 250 246 242 245 245 245 244 248 258 251 249 246 246 241 239 245 250
259 259 261 263 263 261 260 258 259 261 262 263 268 272 274 275 277 282 286 289 290 287 286 283 284 284 284 282 269 267 260 256 255 251 248 241 244 244 241 242 241 257 240 243 246 247 242 244 249
267 265 265 265 267 265 263 258 257 260 261 261 268 273 274 274 273 280 286 289 290 288 286 281 281 281 282 284 274 264 264 259 259 257 256 251 243 246 245 244 241 251 248 253 249 247 247 248 250
273 272 269 266 266 265 265 263 265 265 266 270 273 273 272 271 273 281 284 287 288 287 286 285 282 281 278 275 272 266 265 266 264 260 255 257 253 248 247 248 249 246 244 252 251 251 249 249 249
275 274 270 269 269 269 265 265 263 265 265 268 269 269 272 272 274 277 277 280 282 284 286 285 283 283 280 276 269 265 265 265 266 266 261 256 254 256 254 248 246 246 246 243 240 248 255 244 244
276 275 272 270 269 268 268 267 268 265 267 266 264 267 270 268 271 274 275 276 280 283 285 286 284 280 277 275 274 268 267 267 268 266 266 260 255 253 254 253 250 246 246 245 244 244 247 253 252
277 274 272 271 270 270 268 270 268 262 263 265 265 269 270 269 271 272 271 272 276 279 281 282 283 281 274 270 270 269 267 265 263 263 263 261 261 259 256 253 254 252 248 247 249 250 248 253 258
277 275 271 270 271 269 271 268 271 267 261 264 264 265 267 270 270 271 273 274 276 278 281 281 279 278 273 269 268 266 262 265 264 259 255 258 260 260 259 257 255 255 255 252 251 252 256 260 255
279 279 277 276 273 272 269 268 265 272 263 260 264 268 270 270 269 270 272 275 276 274 276 278 277 273 271 271 269 267 266 265 267 265 259 256 254 255 257 258 256 254 254 255 254 253 251 256 255
276 272 272 273 268 268 270 268 267 263 266 256 261 265 267 267 268 268 270 272 272 271 271 272 272 270 269 266 267 270 271 270 266 266 272 265 257 253 252 252 255 258 255 252 251 252 255 255 258
273 269 270 267 267 267 269 269 273 266 262 261 260 261 263 263 263 266 268 269 270 270 268 268 269 268 267 267 265 266 267 268 268 265 265 271 263 254 252 252 253 253 255 258 258 258 259 258 260
272 272 273 272 268 267 269 274 269 271 268 264 260 257 259 262 264 265 266 268 269 269 269 269 269 269 271 269 264 265 267 265 265 266 264 264 267 263 260 257 257 258 255 257 257 257 257 260 261
277 277 273 271 266 268 270 266 262 266 270 269 266 265 261 262 262 264 265 268 269 270 270 270 269 268 270 272 271 269 268 268 265 264 264 265 263 261 259 257 258 261 259 256 253 255 254 256 259
274 270 260 260 272 274 270 263 260 268 271 270 275 269 265 262 262 264 266 269 269 267 265 267 268 270 270 269 268 269 267 266 267 266 265 265 264 261 258 256 256 260 260 254 247 251 251 254 253
Height
5890 5892 5894 5897 5901 5901 5901 5904 5905 5907 5909 5911 5913 5914 5915 5916 5916 5918 5916 5916 5916 5916 5917 5916 5916 5916 5917 5918 5918 5918 5919 5918 5918 5918 5918 5917 5918 5919 5920 5920 5919 5919 5917 5917 5916 5915 5914 5913 5912
5887 5890 5893 5895 5898 5899 5900 5901 5902 5905 5907 5908 5910 5912 5913 5914 5914 5916 5916 5915 5915 5914 5915 5915 5914 5915 5916 5916 5917 5917 5917 5917 5916 5916 5916 5917 5917 5918 5919 5919 5918 5918 5917 5916 5916 5914 5913 5912 5912
5885 5887 5890 5892 5894 5897 5896 5898 5900 5902 5905 5906 5907 5908 5910 5911 5912 5913 5914 5914 5914 5914 5914 5913 5914 5914 5914 5915 5916 5915 5915 5914 5914 5914 5914 5915 5916 5916 5917 5917 5917 5916 5916 5915 5915 5914 5912 5911 5911
5882 5885 5887 5888 5890 5893 5893 5895 5898 5899 5901 5902 5904 5904 5906 5907 5909 5910 5911 5912 5912 5912 5912 5912 5912 5913 5913 5913 5913 5913 5913 5913 5912 5912 5912 5913 5914 5914 5914 5915 5915 5915 5914 5914 5914 5913 5911 5910 5909
5880 5882 5884 5884 5886 5888 5889 5891 5894 5895 5896 5898 5900 5901 5902 5903 5904 5905 5906 5907 5907 5907 5908 5908 5908 5909 5910 5910 5910 5911 5911 5911 5911 5910 5910 5911 5912 5912 5912 5912 5912 5913 5912 5912 5912 5911 5911 5909 5907
5878 5879 5881 5881 5883 5884 5886 5888 5890 5892 5893 5894 5896 5898 5898 5899 5900 5901 5901 5903 5903 5903 5903 5903 5904 5904 5905 5906 5907 5908 5908 5908 5908 5908 5907 5908 5909 5909 5910 5910 5909 5910 5910 5910 5910 5909 5910 5907 5906
5874 5876 5877 5878 5880 5880 5882 5884 5886 5888 5889 5891 5893 5893 5895 5895 5895 5896 5897 5898 5898 5899 5899 5899 5899 5901 5901 5902 5903 5904 5904 5905 5905 5904 5903 5903 5904 5906 5907 5908 5907 5907 5908 5907 5906 5906 5908 5906 5905
5871 5873 5874 5875 5877 5877 5878 5880 5881 5883 5885 5886 5887 5888 5888 5891 5892 5892 5892 5893 5894 5894 5894 5894 5896 5896 5897 5897 5898 5899 5900 5901 5901 5900 5899 5899 5900 5902 5903 5904 5904 5903 5904 5904 5903 5903 5904 5903 5903
5868 5870 5870 5871 5872 5874 5875 5875 5876 5878 5879 5881 5882 5883 5885 5886 5887 5888 5889 5888 5888 5889 5888 5889 5890 5891 5890 5891 5892 5893 5894 5895 5895 5896 5896 5895 5894 5895 5897 5900 5900 5900 5899 5900 5900 5899 5900 5900 5900
5865 5866 5866 5868 5868 5869 5870 5871 5871 5872 5873 5874 5876 5878 5879 5880 5881 5881 5882 5882 5882 5882 5882 5882 5883 5884 5885 5884 5885 5886 5887 5888 5889 5890 5890 5890 5890 5890 5891 5894 5896 5896 5895 5895 5896 5896 5896 5896 5896
5862 5862 5863 5864 5864 5865 5866 5866 5867 5867 5868 5867 5870 5872 5874 5875 5876 5876 5876 5876 5876 5876 5877 5877 5877 5878 5878 5878 5878 5879 5880 5882 5882 5883 5884 5884 5884 5884 5885 5887 5890 5892 5892 5892 5892 5893 5892 5893 5892
5858 5858 5859 5859 5860 5860 5859 5860 5860 5860 5860 5862 5863 5865 5866 5867 5868 5869 5870 5869 5869 5868 5868 5868 5869 5870 5871 5872 5873 5873 5872 5874 5875 5876 5877 5878 5879 5879 5879 5880 5883 5886 5888 5889 5889 5889 5889 5889 5890
5854 5854 5855 5855 5855 5855 5855 5854 5854 5855 5855 5856 5855 5856 5858 5859 5860 5860 5860 5860 5859 5859 5858 5858 5859 5860 5861 5862 5863 5865 5866 5865 5867 5869 5870 5871 5873 5874 5874 5875 5876 5880 5882 5885 5886 5886 5886 5886 5886
5849 5849 5849 5850 5850 5850 5850 5849 5848 5849 5849 5849 5850 5849 5849 5849 5850 5851 5851 5851 5852 5851 5850 5850 5851 5852 5852 5852 5852 5854 5856 5858 5859 5860 5863 5865 5866 5868 5869 5869 5871 5872 5875 5880 5882 5883 5883 5883 5882
5844 5844 5844 5845 5846 5845 5844 5843 5843 5844 5844 5844 5844 5844 5844 5843 5843 5843 5843 5843 5843 5843 5842 5842 5842 5842 5842 5842 5843 5844 5845 5847 5850 5851 5854 5857 5859 5861 5861 5862 5864 5865 5868 5873 5876 5879 5879 5879 5878
5839 5840 5839 5840 5840 5840 5839 5838 5837 5837 5838 5839 5839 5838 5838 5838 5838 5837 5836 5836 5835 5834 5834 5834 5833 5833 5833 5832 5832 5833 5834 5836 5839 5842 5845 5847 5849 5852 5853 5856 5857 5858 5860 5864 5869 5871 5873 5873 5873
5834 5834 5834 5833 5834 5834 5834 5833 5830 5831 5833 5832 5831 5832 5831 5831 5830 5830 5829 5828 5827 5826 5825 5825 5825 5823 5823 5824 5823 5824 5825 5826 5829 5831 5833 5837 5840 5842 5846 5848 5849 5850 5853 5855 5861 5865 5866 5867 5867
5828 5828 5828 5827 5826 5828 5828 5828 5825 5825 5826 5826 5825 5825 5824 5824 5824 5823 5823 5822 5821 5819 5818 5816 5816 5815 5815 5815 5816 5817 5817 5818 5820 5822 5823 5827 5830 5833 5836 5839 5842 5839 5845 5846 5853 5858 5861 5862 5862
5821 5821 5821 5819 5819 5820 5821 5821 5820 5819 5819 5819 5819 5818 5817 5817 5817 5817 5816 5814 5813 5812 5811 5810 5808 5808 5807 5807 5808 5809 5810 5811 5812 5814 5816 5818 5821 5824 5828 5830 5833 5835 5837 5840 5846 5850 5853 5856 5857
5813 5813 5813 5811 5810 5811 5812 5813 5813 5812 5811 5811 5812 5811 5810 5810 5809 5809 5808 5807 5806 5805 5804 5803 5802 5801 5800 5800 5800 5801 5803 5804 5805 5806 5808 5810 5812 5815 5818 5821 5824 5828 5830 5833 5838 5841 5845 5848 5849
5805 5805 5804 5804 5801 5802 5803 5804 5804 5805 5803 5804 5804 5803 5803 5802 5801 5801 5801 5800 5800 5798 5797 5796 5795 5794 5793 5793 5794 5794 5795 5796 5797 5798 5799 5801 5803 5805 5809 5812 5815 5818 5822 5826 5829 5832 5834 5835 5838
5798 5796 5796 5795 5794 5794 5792 5795 5796 5796 5794 5795 5796 5795 5795 5794 5793 5793 5793 5792 5792 5791 5790 5789 5788 5787 5787 5787 5788 5789 5789 5789 5790 5791 5792 5793 5795 5797 5799 5802 5805 5808 5810 5815 5819 5821 5824 5825 5828
5789 5788 5787 5786 5785 5784 5786 5784 5788 5789 5786 5785 5785 5786 5786 5786 5786 5785 5785 5785 5784 5783 5783 5783 5782 5781 5781 5781 5781 5782 5783 5783 5783 5784 5786 5787 5788 5790 5791 5793 5796 5799 5801 5805 5809 5812 5815 5815 5820
5779 5778 5777 5777 5776 5775 5777 5777 5776 5778 5779 5775 5776 5776 5777 5777 5777 5777 5776 5776 5777 5776 5775 5775 5775 5775 5774 5774 5774 5775 5775 5775 5776 5777 5778 5779 5781 5783 5783 5785 5787 5789 5792 5796 5798 5802 5805 5808 5812
5770 5768 5768 5767 5765 5767 5763 5767 5768 5765 5769 5768 5765 5766 5767 5768 5768 5767 5768 5767 5768 5767 5767 5766 5766 5767 5766 5767 5767 5767 5768 5768 5768 5768 5769 5771 5772 5774 5775 5778 5779 5782 5784 5786 5789 5791 5795 5798 5801
5758 5760 5759 5757 5759 5762 5750 5752 5756 5757 5758 5758 5757 5756 5758 5758 5757 5757 5758 5758 5758 5758 5758 5758 5757 5758 5758 5758 5758 5759 5760 5760 5760 5760 5760 5761 5762 5764 5766 5768 5771 5773 5775 5777 5780 5782 5785 5788 5790
5751 5747 5750 5744 5745 5742 5744 5744 5742 5745 5747 5747 5748 5747 5747 5748 5748 5748 5748 5748 5748 5749 5749 5748 5748 5748 5748 5749 5750 5750 5750 5751 5751 5752 5752 5751 5751 5753 5755 5758 5761 5763 5765 5767 5770 5772 5776 5778 5781
5737 5740 5734 5734 5733 5730 5732 5733 5733 5731 5732 5736 5737 5737 5737 5737 5737 5736 5737 5737 5737 5738 5738 5739 5738 5738 5738 5738 5739 5739 5740 5741 5742 5743 5743 5742 5743 5743 5745 5748 5750 5752 5755 5757 5760 5763 5765 5767 5771
5723 5721 5720 5721 5721 5719 5720 5724 5722 5719 5718 5722 5725 5725 5726 5726 5725 5723 5724 5725 5726 5727 5726 5726 5726 5727 5727 5726 5726 5727 5728 5728 5731 5732 5732 5733 5734 5734 5734 5736 5738 5739 5741 5743 5748 5751 5755 5756 5760
5708 5710 5711 5707 5706 5705 5705 5706 5711 5706 5704 5705 5710 5713 5713 5712 5711 5710 5712 5713 5713 5714 5713 5712 5712 5713 5713 5713 5713 5713 5713 5714 5715 5718 5720 5723 5723 5724 5725 5725 5726 5727 5728 5730 5735 5740 5744 5746 5749